STARLINK-37074, 68073

Orbit data source: Space-Track

STARLINK-37074, 68073 is a payload satellite owned by SpaceX/Seattle (US) in LEO that was launched on Wed, 04 Mar 2026 UTC via an FALCON 9 launch vehicle from the Air Force Eastern Test Range (AFETR). Payload-class satellites include a variety of spacecraft equipped with specific instruments for various scientific and technological missions. These include communications satellites like Starlink; space stations such as the ISS; scientific satellites like the Hubble; Earth observation satellites from companies like Planet Labs, Umbra, and HawkEye 360; GPS; miniature CubeSats for education and research; and military/defense satellites.

Loading next visibility...
Identifier
68073, 2026-042E
Orbit
LEO
Country
Flag of USUS
Related business
Manufacturer
SpaceX/Seattle
Mission
Operational Commercial Communications
Bus & Motor
STARLINK V2MO, Unknown motor
Mass
575 kg wet, ~530 kg dry
Launch date (UTC)
2026-03-04 (2 months ago)
Launch vehicle
FALCON 9
Launch site
Air Force Eastern Test Range (AFETR)
Object type
Payload
Rocket body
Debris
Shape & HBR
Box + 2 Pan, 17.7 m
Radar Cross Section
36.964 m²

Expand to show TLE details & history
Last TLE update: 8 hours ago

TLE from 8 hours ago
0 STARLINK-37074
1 68073U 26042E   26119.25003472 -.01826764  00000-0 -49728-1 0  9997
2 68073  53.1590 303.7826 0001219  74.9706  60.7549 15.40229524  5903
Epoch: 2026-04-29T06:00Z
TLE epoch observation values (Epoch: 2026-04-29T06:00:02.999Z)
Latitude
34.0668°
Longitude
146.30404°
Altitude
447.429 km
Speed
7.648 km/s
True Right ascension
06h 14m 07s
True Declination
33° 54' 01"
Sunlit
Object was in daylight at epoch
Visualization orbit readout
Latitude
Unknown
Longitude
Unknown
Altitude
Unknown
Speed
Unknown
Apparent Right ascension
Unknown
Apparent Declination
Unknown
Sunlit
N/A
Visualization observer readout
Local Sidereal Time
21:50:10
Azimuth
Unknown
Elevation
Unknown
Doppler factor
Unknown
Orbital elements
Apogee altitude
446.521 km
Perigee altitude
444.857 km
Semi-major axis
6,823.826 km
Eccentricity
0.00012
Inclination
53.159°
RAAN
303.7826°
Arg. of periapsis
74.9706°
True anomaly
60.76709°
Mean anomaly
60.7549°
Eccentric anomaly
60.76099°
Mean motion
3.85036 °/min
Orbital period
93.5 mins
BSTAR
-0.049728
Loading maneuver chart data...
Computing Atmospheric mass density...
Loading historical data...
Loading historical data...
Loading historical data...
Loading historical data...
Loading historical data...
Loading historical data...
Loading historical data...

Documentation

Showing up to 5 results
|